DW9417 Weather Reports


Display with metric or nautical units.
time (UTC)temp
F
wind
direction
speed
MPH
gust
MPH
rain 1hr
in
rain 24hr
in
rain mn
in
humidity
%
barometer
mb
20260507021537 62 93 6.0 15.0 0.00 0.00 0.00 60 1032.4
20260507020045 61 106 8.0 14.0 0.00 0.00 0.00 61 1032.6
20260507014527 60 88 8.0 13.0 0.00 0.00 0.00 62 1032.7
20260507013025 59 37 8.0 14.0 0.00 0.00 0.00 65 1032.8
20260507011533 58 40 7.0 13.0 0.00 0.00 0.00 67 1032.8
20260507010017 57 86 9.0 13.0 0.00 0.00 0.00 69 1033.0
20260507004512 56 80 7.0 12.0 0.00 0.00 0.00 73 1033.0
20260507003008 54 80 6.0 11.0 0.00 0.00 0.00 75 1033.0
20260507001514 53 90 5.0 9.0 0.00 0.00 0.00 78 1033.0
20260507000002 52 90 5.0 9.0 0.00 0.00 0.00 80 1032.7
20260506234600 51 76 3.0 8.0 0.00 0.00 0.00 81 1032.5
20260506233058 50 119 3.0 6.0 0.00 0.00 0.00 83 1032.4
20260506231604 49 90 2.0 4.0 0.00 0.00 0.00 84 1032.3
20260506224550 45 100 1.0 4.0 0.00 0.00 0.00 90 1032.0
20260506223047 44 101 0.0 0.0 0.00 0.00 0.00 84 1031.9
20260506221602 44 101 0.0 0.0 0.00 0.00 0.00 85 1031.9
20260506220044 44 101 0.0 0.0 0.00 0.00 0.00 84 1031.7
20260506214541 45 101 0.0 0.0 0.00 0.00 0.00 82 1031.5
20260506213040 46 101 0.0 0.0 0.00 0.00 0.00 83 1031.3
20260506211538 46 101 0.0 0.0 0.00 0.00 0.00 82 1031.2
20260506210050 46 101 0.0 0.0 0.00 0.00 0.00 82 1031.2
20260506204540 46 101 0.0 0.0 0.00 0.00 0.00 83 1031.2
20260506203037 45 101 0.0 0.0 0.00 0.00 0.00 84 1031.1
20260506201534 45 101 0.0 0.0 0.00 0.00 0.00 84 1031.1
20260506200034 45 101 0.0 0.0 0.00 0.00 0.00 85 1031.0
20260506194533 44 101 0.0 0.0 0.00 0.00 0.00 84 1030.9
20260506193037 44 101 0.0 0.0 0.00 0.00 0.00 83 1030.8
20260506191529 44 101 0.0 1.0 0.00 0.00 0.00 83 1030.9
20260506190030 44 102 0.0 0.0 0.00 0.00 0.00 82 1030.9
20260506184535 45 101 0.0 0.0 0.00 0.00 0.00 80 1031.0
20260506183021 48 88 0.0 0.0 0.00 0.00 0.00 76 1031.0
20260506181533 49 88 2.0 6.0 0.00 0.00 0.00 80 1031.0
20260506180018 46 71 0.0 0.0 0.00 0.00 0.00 80 1031.0
20260506174517 47 87 0.0 0.0 0.00 0.00 0.00 80 1030.9
20260506173014 48 82 0.0 0.0 0.00 0.00 0.00 78 1030.9
20260506171510 48 65 0.0 0.0 0.00 0.00 0.00 78 1030.8
20260506170012 49 64 0.0 1.0 0.00 0.00 0.00 77 1030.8
20260506164524 49 61 0.0 2.0 0.00 0.00 0.00 75 1030.9
20260506163010 50 61 1.0 3.0 0.00 0.00 0.00 75 1030.8
20260506161502 50 61 1.0 3.0 0.00 0.00 0.00 75 1030.9
20260506160127 51 59 3.0 5.0 0.00 0.00 0.00 73 1030.9
20260506160002 51 59 3.0 5.0 0.00 0.00 0.00 73 1030.9
20260506154600 51 67 2.0 4.0 0.00 0.00 0.00 73 1030.9
20260506153058 52 125 2.0 6.0 0.00 0.00 0.00 71 1030.9
20260506151604 52 105 3.0 6.0 0.00 0.00 0.00 70 1031.0
20260506150104 53 107 2.0 6.0 0.00 0.00 0.00 69 1030.9
20260506144557 54 109 2.0 7.0 0.00 0.00 0.00 67 1031.0
20260506143057 56 138 6.0 9.0 0.00 0.00 0.00 63 1030.9
20260506141556 56 114 4.0 7.0 0.00 0.00 0.00 65 1030.9
20260506140055 55 94 2.0 4.0 0.00 0.00 0.00 66 1030.8
20260506134554 55 108 2.0 4.0 0.00 0.00 0.00 67 1030.6
20260506133107 55 109 2.0 7.0 0.00 0.00 0.00 67 1030.5
20260506131613 55 113 3.0 6.0 0.00 0.00 0.00 66 1030.4
20260506130053 57 113 3.0 8.0 0.00 0.00 0.00 63 1030.3
20260506124553 57 101 5.0 9.0 0.00 0.00 0.00 62 1030.1
20260506123052 57 105 5.0 7.0 0.00 0.00 0.00 61 1030.1
20260506121556 58 112 6.0 9.0 0.00 0.00 0.00 60 1030.0
20260506120100 58 118 5.0 9.0 0.00 0.00 0.00 60 1029.9
20260506114551 58 123 5.0 9.0 0.00 0.00 0.00 60 1029.7
20260506113049 59 116 4.0 10.0 0.00 0.00 0.00 59 1029.7
20260506111549 59 123 5.0 10.0 0.00 0.00 0.00 58 1029.6
20260506110058 59 112 4.0 8.0 0.00 0.00 0.00 57 1029.3
20260506104601 60 128 3.0 5.0 0.00 0.00 0.00 56 1029.2
20260506103049 61 120 4.0 8.0 0.00 0.00 0.00 55 1029.3
20260506101546 61 123 3.0 6.0 0.00 0.00 0.00 54 1029.1
20260506100053 61 123 3.0 6.0 0.00 0.00 0.00 53 1029.0
20260506094545 63 114 3.0 6.0 0.00 0.00 0.00 51 1028.8
20260506093045 64 123 3.0 7.0 0.00 0.00 0.00 49 1028.6
20260506091544 65 126 3.0 7.0 0.00 0.00 0.00 48 1028.5
20260506090043 66 135 5.0 11.0 0.00 0.00 0.00 48 1028.5
20260506084613 67 121 7.0 10.0 0.00 0.00 0.00 47 1028.4
20260506083043 67 121 4.0 12.0 0.00 0.00 0.00 48 1028.3
20260506081551 68 153 6.0 12.0 0.00 0.00 0.00 47 1028.3
20260506073040 69 121 6.0 14.0 0.00 0.00 0.00 47 1028.2
20260506071538 69 167 5.0 11.0 0.00 0.00 0.00 47 1028.2
20260506061533 68 93 8.0 12.0 0.00 0.00 0.00 50 1028.3
20260506044524 66 38 4.0 13.0 0.00 0.00 0.00 57 1029.1
20260506043023 66 101 7.0 12.0 0.00 0.00 0.00 59 1029.3
20260506041519 65 69 7.0 11.0 0.00 0.00 0.00 61 1029.5
20260506040017 64 78 6.0 11.0 0.00 0.00 0.00 63 1029.7
20260506034516 63 87 6.0 17.0 0.00 0.00 0.00 64 1030.0
20260506033014 63 105 7.0 13.0 0.00 0.00 0.00 65 1030.1
20260506031512 62 109 7.0 13.0 0.00 0.00 0.00 66 1030.3
20260506030007 61 113 7.0 13.0 0.00 0.00 0.00 68 1030.5
20260506024507 61 62 6.0 12.0 0.00 0.00 0.00 68 1030.5
20260506023004 60 33 5.0 12.0 0.00 0.00 0.00 69 1030.6